Weather History for Indian Mountain, AK

Change the Weather History Date:

Monday, September 23, 2013

  Actual Average Record
Temperature  
Mean Temperature 24 °F -  
Max Temperature 30 °F 39 °F 50 °F (2005)
Min Temperature 19 °F 29 °F 19 °F (2013)
Degree Days  
Heating Degree Days 40    
Moisture  
Dew Point 21 °F    
Average Humidity 81    
Maximum Humidity 93    
Minimum Humidity 64    
Precipitation  
Precipitation 0.00 in - - ()
Sea Level Pressure  
Sea Level Pressure 29.76 in    
Wind  
Wind Speed 3 mph (WNW)    
Max Wind Speed 7 mph    
Max Gust Speed 68 mph    
Visibility 10 miles    
Events Snow    
Averages and records for this station are not official NWS values.
T = Trace of Precipitation, MM = Missing Value Source: NWS Daily Summary

Daily Weather History Graph

Daily Weather History Graph

Search for Another Location

Airport:

Trip Planner

Search our weather history database for the weather conditions in past years. The results will help you decide how hot, cold, wet, or windy it might be!

Date:

Astronomy

Sep. 23, 2013 Rise Set
Actual Time 8:01 AM AKDT 8:10 PM AKDT
Civil Twilight 7:10 AM AKDT 9:01 PM AKDT
Nautical Twilight 6:07 AM AKDT 10:04 PM AKDT
Astronomical Twilight 4:53 AM AKDT 11:16 PM AKDT
Moon 8:42 PM AKDT (9/23) 2:36 PM AKDT (9/23)
Length of Visible Light 13h 51m
Length of Day
12h 08m
Waning Gibbous, 80% of the Moon is Illuminated
Sep 23
Waning Gibbous
Sep 26
Last Quarter
Oct 4
New
Oct 11
First Quarter
Oct 18
Full

Hourly Weather History & Observations

Time (AKDT) Temp. Windchill Dew Point Humidity Pressure Visibility Wind Dir Wind Speed Gust Speed Precip Events Conditions
12:55 AM 21.0 °F - 16.7 °F 83% 29.59 in 10.0 mi WNW 2.3 mph 67.9 mph N/A   Partly Cloudy
1:55 AM 20.7 °F - 16.3 °F 83% 29.61 in 10.0 mi Variable 1.2 mph - N/A   Clear
2:28 AM 19.4 °F 14.3 °F 15.8 °F 86% 29.62 in 10.0 mi NW 3.5 mph - N/A   Partly Cloudy
2:55 AM 20.1 °F 15.2 °F 17.2 °F 89% 29.62 in 10.0 mi NNW 3.5 mph - N/A   Partly Cloudy
3:48 AM 21.2 °F 16.4 °F 19.4 °F 93% 29.64 in 10.0 mi NW 3.5 mph - N/A   Mostly Cloudy
3:55 AM 22.6 °F 18.0 °F 18.5 °F 84% 29.64 in 10.0 mi Variable 3.5 mph - N/A   Mostly Cloudy
4:55 AM 21.4 °F - 19.0 °F 91% 29.65 in 10.0 mi Calm Calm - N/A Snow Light Snow Showers
5:08 AM 23.0 °F 18.4 °F 19.4 °F 86% 29.66 in 10.0 mi NNW 3.5 mph - N/A   Mostly Cloudy
5:28 AM 23.0 °F - 19.4 °F 86% 29.66 in 10.0 mi Variable 2.3 mph - N/A   Mostly Cloudy
5:55 AM 24.1 °F - 21.2 °F 89% 29.66 in 10.0 mi Variable 1.2 mph - N/A   Mostly Cloudy
6:55 AM 25.2 °F - 21.0 °F 84% 29.67 in 10.0 mi Variable 1.2 mph - N/A   Mostly Cloudy
7:55 AM 27.1 °F 23.2 °F 24.1 °F 88% 29.69 in 10.0 mi West 3.5 mph - N/A   Overcast
8:48 AM 26.6 °F 20.0 °F 24.8 °F 93% 29.71 in 9.0 mi West 5.8 mph - N/A Snow Light Snow
8:55 AM 27.0 °F 21.6 °F 24.1 °F 89% 29.71 in 10.0 mi West 4.6 mph - N/A Snow Light Snow Showers
9:28 AM 26.6 °F 20.0 °F 24.8 °F 93% 29.72 in 10.0 mi West 5.8 mph - N/A Snow Light Snow Showers
9:48 AM 26.6 °F 21.2 °F 24.8 °F 93% 29.72 in 1.8 mi West 4.6 mph - N/A Snow Light Snow Showers
9:55 AM 26.8 °F 20.2 °F 24.3 °F 90% 29.72 in 3.0 mi WSW 5.8 mph - N/A Snow Light Snow Showers
10:55 AM 27.1 °F 20.7 °F 24.3 °F 89% 29.74 in 10.0 mi WSW 5.8 mph - N/A   Overcast
11:08 AM 26.6 °F 20.0 °F 24.8 °F 93% 29.75 in 10.0 mi West 5.8 mph - N/A Snow Light Snow
11:55 AM 27.9 °F 24.0 °F 22.6 °F 81% 29.76 in 10.0 mi Variable 3.5 mph - N/A   Overcast
12:55 PM 28.9 °F 22.8 °F 19.8 °F 69% 29.78 in 10.0 mi Variable 5.8 mph - N/A   Overcast
1:08 PM 28.4 °F 21.2 °F 19.4 °F 69% 29.78 in 10.0 mi Variable 6.9 mph - N/A   Overcast
1:55 PM 29.7 °F 24.7 °F 19.4 °F 66% 29.79 in 10.0 mi Variable 4.6 mph - N/A   Overcast
2:55 PM 30.2 °F 25.4 °F 19.4 °F 64% 29.80 in 10.0 mi North 4.6 mph - N/A   Overcast
3:55 PM 30.6 °F 23.8 °F 20.5 °F 66% 29.81 in 10.0 mi North 6.9 mph - N/A   Mostly Cloudy
4:55 PM 30.4 °F 25.6 °F 21.6 °F 70% 29.82 in 10.0 mi Variable 4.6 mph - N/A   Overcast
5:55 PM 30.6 °F 27.1 °F 20.7 °F 67% 29.83 in 10.0 mi Variable 3.5 mph - N/A   Overcast
6:28 PM 30.2 °F - 21.2 °F 69% 29.83 in 10.0 mi Variable 2.3 mph - N/A   Overcast
6:48 PM 30.2 °F - 21.2 °F 69% 29.84 in 10.0 mi Variable 2.3 mph - N/A   Overcast
6:55 PM 30.2 °F - 22.1 °F 72% 29.84 in 10.0 mi Variable 1.2 mph - N/A   Overcast
7:28 PM 30.2 °F - 23.0 °F 75% 29.85 in 10.0 mi NNW 2.3 mph - N/A   Mostly Cloudy
7:55 PM 29.8 °F 26.3 °F 23.2 °F 76% 29.85 in 10.0 mi Variable 3.5 mph - N/A   Overcast
8:48 PM 28.4 °F - 23.0 °F 80% 29.86 in 10.0 mi Variable 1.2 mph - N/A   Mostly Cloudy
8:55 PM 28.6 °F - 23.5 °F 81% 29.87 in 10.0 mi NNW 2.3 mph - N/A   Mostly Cloudy
9:28 PM 28.4 °F - 23.0 °F 80% 29.87 in 10.0 mi NNW 1.2 mph - N/A   Mostly Cloudy
9:55 PM 28.2 °F - 23.5 °F 83% 29.88 in 10.0 mi NNE 1.2 mph - N/A   Mostly Cloudy
10:28 PM 28.4 °F 23.3 °F 23.0 °F 80% 29.88 in 10.0 mi SSE 4.6 mph - N/A   Mostly Cloudy
10:55 PM 27.1 °F 23.2 °F 23.0 °F 84% 29.88 in 10.0 mi SSW 3.5 mph - N/A   Partly Cloudy
11:55 PM 23.4 °F 18.9 °F 21.2 °F 91% 29.91 in 10.0 mi Variable 3.5 mph - N/A   Scattered Clouds